カタログに戻る

STARLINK-31487

運用中通信VLEO
NORAD 59297·PAYLOAD·🇺🇸 United States

打ち上げ Mar 24, 2024 から Cape Canaveral Space Force Station

Loading…

次のパス (今後24時間)

TLE

最新Source: CelesTrak SupGP

元期: Sep 14, 2026, 21:28 UTC

1 59297C 24056B   26257.89493056  .00030249  00000+0  10967-2 0  2574
2 59297  43.0000 242.3906 0001371 262.9234 265.4341 15.27530033    12

AllMySatでSTARLINK-31487をリアルタイム追跡

Download on the App Store